Hourly Data Report for October 29, 2016

All times are specified in Local Standard Time (LST). Add 1 hour to adjust for Daylight Saving Time where and when it is observed.

CORAL HARBOUR A
NUNAVUT

64°11'36.000" N
83°21'34.000" W
62.20 m
2301002
71915
YZS

Download Data

Hourly Data (October 2016)
Hourly Data Report for October 29, 2016
Temp Definition
°C
Dew Point Temp Definition
°C
Rel Hum Definition
%
Wind Dir Definition
10's deg

Wind Spd Definition
km/h
Visibility Definition
km
Stn Press Definition
kPa
Hmdx Definition


Wind Chill Definition


Weather Definition


TIME
00:00 Legend Double Dagger -20.6 -22.8 83 33 8 24.1 99.82   -27 LegendNANA
01:00 Legend Double Dagger -17.5 -20.3 79 33 7 24.1 99.79   -23 Clear
02:00 Legend Double Dagger -20.0 -22.1 84 32 7 24.1 99.76   -26 LegendNANA
03:00 Legend Double Dagger -19.6 -22.2 80 27 8 24.1 99.73   -26 LegendNANA
04:00 Legend Double Dagger -19.3 -21.4 84 36 10 24.1 99.70   -26 Clear
05:00 Legend Double Dagger -19.9 -21.8 85 30 9 24.1 99.66   -27 LegendNANA
06:00 Legend Double Dagger -19.6 -21.9 82 32 10 24.1 99.63   -27 LegendNANA
07:00 Legend Double Dagger -22.0 -24.6 80 1 12 24.1 99.57   -30 Clear
08:00 Legend Double Dagger -21.5 -24.4 78 36 6 24.1 99.50   -27 LegendNANA
09:00 Legend Double Dagger -21.1 -23.0 85 2 5 24.1 99.44   -26 LegendNANA
10:00 Legend Double Dagger -22.5 -24.9 81 1 10 24.1 99.38   -30 Mainly Clear
11:00 Legend Double Dagger -21.5 -24.2 79 2 16 24.1 99.34   -31 LegendNANA
12:00 Legend Double Dagger -20.6 -23.4 79 35 19 24.1 99.30   -31 LegendNANA
13:00 Legend Double Dagger -19.8 -22.6 79 35 19 24.1 99.26   -30 Mainly Clear
14:00 Legend Double Dagger -19.7 -22.8 77 34 25 24.1 99.19   -31 LegendNANA
15:00 Legend Double Dagger -20.2 -23.3 77 34 24 24.1 99.16   -32 LegendNANA
16:00 Legend Double Dagger -21.5 -24.5 77 33 23 24.1 99.11   -33 Clear
17:00 Legend Double Dagger -21.8 -25.0 76 34 26 24.1 99.09   -34 LegendNANA
18:00 Legend Double Dagger -22.7 -26.1 74 33 26 24.1 99.06   -35 LegendNANA
19:00 Legend Double Dagger -23.4 -26.7 75 33 28 24.1 99.02   -37 Clear
20:00 Legend Double Dagger -22.9 -26.6 72 33 25 24.1 99.00   -35 LegendNANA
21:00 Legend Double Dagger -22.8 -25.8 77 33 25 24.1 98.96   -35 LegendNANA
22:00 Legend Double Dagger -22.4 -24.8 81 34 26 24.1 98.96   -35 Mainly Clear
23:00 Legend Double Dagger -21.3 -23.8 81 34 22 24.1 98.92   -33 LegendNANA

Notes on Data Quality.

Legend

  • E = Estimated
  • M = Missing
  • NA = Not Available
  • ‡ = Partner data that is not subject to review by the National Climate Archives
Date modified: